Wetbulb
72.90 76.35 77.30 77.78 77.47 76.92 76.90 76.97 77.10 77.29 77.24 77.39 77.57 77.24 76.89 76.59 76.37 76.61 76.66 76.47 76.67 76.69 76.32 76.00 75.44 74.73 74.08 74.07 74.29 74.10 74.58 74.32 73.72 74.08 74.51 74.47 74.25 73.55 72.56 72.13 71.88 70.71 71.82
74.46 76.28 77.10 77.57 77.37 77.02 76.77 76.82 76.62 76.77 76.99 76.96 76.99 76.74 76.34 76.19 76.32 76.21 76.47 76.59 76.77 76.54 75.92 75.69 74.95 74.27 73.66 73.59 73.79 73.72 73.77 74.05 74.42 74.19 74.23 74.03 74.03 74.01 73.51 72.13 71.62 71.07 71.59
75.10 76.41 76.74 77.39 77.32 77.05 76.74 76.52 76.41 76.38 76.61 76.61 76.61 76.39 76.34 76.16 76.04 76.29 76.46 76.56 76.77 75.95 75.61 75.23 74.70 74.08 73.60 73.60 73.70 73.75 73.83 74.01 74.56 73.78 73.68 71.35 71.59 73.51 73.71 72.39 71.60 71.57 71.57
75.11 75.93 76.44 77.31 77.09 77.07 76.69 76.23 76.21 76.23 76.33 76.43 76.28 76.19 76.21 75.99 75.94 76.24 76.46 76.84 76.69 75.82 75.41 75.02 74.23 73.49 73.38 73.44 73.34 73.37 73.58 73.65 73.74 73.02 71.31 70.26 70.22 72.39 72.39 72.21 71.56 71.27 71.10
74.60 75.13 76.07 77.24 76.89 76.84 76.39 76.10 75.80 75.98 75.93 76.05 76.26 76.09 76.06 75.88 75.88 76.11 76.56 76.87 76.41 75.59 75.41 75.08 74.15 73.32 73.23 73.37 73.79 74.22 74.52 74.69 74.21 73.28 71.68 72.33 72.49 72.33 72.53 72.22 72.15 72.07 72.32
74.46 74.98 76.86 77.05 76.71 76.51 76.41 76.03 75.75 75.67 75.73 75.86 76.21 75.96 75.91 75.91 75.83 76.22 76.58 76.61 76.57 75.75 75.35 74.90 73.70 73.23 72.92 72.66 73.17 73.42 73.17 73.15 72.12 70.87 70.66 70.86 72.45 73.37 73.82 73.39 73.82 74.23 74.12
74.14 75.09 76.36 76.87 76.61 76.51 76.24 75.91 75.80 75.53 75.70 75.83 76.00 76.06 75.96 75.88 76.01 76.44 76.60 76.59 76.49 75.69 75.29 73.98 73.34 73.15 73.22 72.64 72.33 72.65 72.59 72.12 70.68 69.41 70.44 71.21 72.08 73.25 74.17 73.51 73.57 73.69 73.62
73.78 75.00 75.41 76.68 76.57 76.25 76.16 75.78 75.47 75.40 75.52 75.74 75.74 75.80 75.83 75.67 75.87 76.06 76.30 76.40 76.16 75.69 74.06 73.24 72.82 72.45 72.62 72.53 72.18 72.11 72.14 71.44 69.34 68.37 69.99 71.98 72.80 73.28 73.09 73.96 74.11 73.89 73.52
74.42 74.33 74.74 75.30 75.87 76.25 75.99 75.59 75.17 75.44 75.44 75.53 75.43 75.19 75.49 75.68 75.88 75.93 76.01 75.94 75.42 74.58 73.96 73.39 72.75 72.45 72.38 72.20 71.81 71.64 71.50 71.11 67.01 68.47 70.07 71.31 74.07 74.41 73.67 73.76 73.59 73.12 72.75
74.11 73.97 73.98 74.10 74.53 74.74 74.82 75.57 75.19 75.43 75.60 75.39 75.32 75.24 75.50 75.67 75.59 75.54 74.57 74.82 74.60 74.25 73.73 73.16 72.57 72.30 71.81 71.39 71.17 71.04 70.90 69.05 65.27 69.47 72.70 73.99 74.21 73.88 73.23 72.60 72.03 71.78 71.24
72.60 73.34 73.49 73.21 73.85 73.29 73.67 74.51 75.13 75.20 75.63 75.44 75.32 75.41 74.55 73.92 74.33 74.51 73.95 74.57 74.42 73.87 73.40 72.84 72.52 71.83 71.02 70.72 70.90 70.86 70.41 67.17 65.96 66.55 72.40 74.21 74.24 73.25 72.16 71.42 70.86 70.55 70.28
70.77 72.35 73.20 73.07 73.04 72.31 73.29 73.17 73.62 73.01 73.85 74.09 73.99 73.95 72.86 72.63 72.74 73.60 73.73 74.55 74.31 73.63 72.87 72.50 72.03 71.37 70.33 67.72 66.73 68.44 68.04 67.57 67.12 66.60 71.64 74.16 74.27 72.49 71.38 70.88 70.47 70.38 70.53
70.97 71.60 72.41 72.67 72.92 72.03 71.81 72.60 72.61 72.66 72.47 72.79 73.20 72.85 72.62 73.11 73.02 72.97 72.15 73.25 72.20 73.01 70.54 71.28 70.16 69.19 68.14 67.35 67.00 66.31 67.04 67.55 67.13 69.60 72.72 74.01 73.69 71.76 70.88 70.46 70.35 70.51 69.94
70.73 71.65 72.26 72.64 72.52 71.93 72.10 71.98 71.83 71.40 71.26 71.68 72.44 72.75 72.24 70.79 71.58 71.50 71.36 71.20 70.27 70.58 68.81 68.22 67.19 67.20 67.18 67.60 66.94 66.97 67.73 68.19 69.40 71.50 73.37 73.59 73.12 71.68 70.60 69.98 69.70 68.79 68.21
70.11 71.26 71.83 72.36 72.10 72.28 71.55 71.86 71.41 70.69 70.64 70.46 70.70 71.12 70.97 69.86 70.05 70.48 70.48 70.25 69.57 68.74 67.72 66.02 65.98 65.80 65.74 66.49 67.40 68.23 68.94 68.48 69.65 69.67 70.85 73.14 72.01 71.81 70.45 69.71 68.75 68.38 68.03
61.79 70.79 71.65 72.00 72.29 72.08 71.93 71.69 71.54 70.69 70.46 70.44 70.21 70.39 70.47 70.15 70.20 69.69 69.40 69.60 68.85 67.77 67.30 65.46 65.39 65.84 66.05 67.36 68.70 69.96 70.62 69.57 69.21 68.57 68.79 71.49 71.04 71.06 70.82 69.62 68.27 67.76 67.91
54.88 69.74 70.75 71.43 72.13 71.88 71.85 71.16 71.28 70.70 70.90 70.30 70.43 70.53 70.18 70.13 69.70 69.55 68.85 68.45 69.05 67.75 66.78 66.40 66.33 67.29 67.29 68.28 69.98 70.62 70.85 69.91 69.01 68.56 68.10 68.79 70.09 70.40 70.06 69.76 68.51 67.08 66.81
54.13 67.48 70.29 71.78 71.62 71.54 71.89 71.40 71.56 71.31 71.02 70.75 70.43 70.06 69.91 69.19 69.36 69.07 68.38 68.11 68.26 67.52 66.98 66.17 65.56 66.59 68.72 68.62 69.04 69.47 69.86 70.10 69.35 68.36 67.96 67.31 68.27 67.58 67.24 67.90 68.20 67.36 66.51
51.68 54.61 67.68 69.70 70.56 70.91 71.33 71.33 71.20 70.76 70.17 69.85 69.56 68.87 68.87 68.97 68.39 68.66 68.41 68.08 68.04 67.10 66.61 66.26 67.34 68.21 68.71 67.84 67.91 67.81 66.59 65.78 65.65 65.73 66.53 66.75 67.02 66.45 64.99 64.26 65.80 67.14 67.31
49.16 50.86 57.00 68.37 69.87 70.30 70.85 70.73 70.07 69.49 69.15 68.38 68.40 68.32 67.88 68.19 68.37 67.56 68.08 68.26 67.92 67.01 66.85 67.69 68.42 67.99 67.68 66.99 65.24 64.16 63.14 63.37 64.19 63.82 63.73 64.05 64.28 62.37 61.81 62.02 61.77 64.54 67.18
50.23 49.91 56.69 66.11 68.00 68.57 67.80 67.80 67.91 67.73 67.75 67.12 67.37 68.20 66.87 67.51 68.78 67.93 67.61 67.42 67.91 68.00 68.09 68.31 68.33 66.56 64.10 64.31 62.58 62.37 61.48 60.01 59.30 59.37 58.99 58.91 58.69 57.24 57.92 59.44 60.54 60.50 60.43
49.16 51.39 61.60 66.34 66.43 67.76 67.74 68.15 68.20 68.22 67.60 67.24 67.03 67.64 66.92 66.37 67.47 68.81 68.19 67.15 67.53 68.58 68.68 68.34 66.90 64.41 62.26 61.35 59.73 60.66 59.47 59.78 57.12 56.10 55.85 55.92 55.49 56.95 57.41 56.93 56.20 55.88 55.85
47.32 49.85 62.13 66.36 66.43 67.25 67.71 67.50 66.49 66.92 66.92 66.06 66.24 66.27 67.14 66.24 66.41 68.21 69.17 68.11 68.16 68.80 68.22 67.84 66.73 64.48 61.69 62.05 60.91 60.10 56.45 57.77 56.15 57.62 54.20 53.34 54.19 52.82 51.65 51.08 50.89 51.41 52.77
45.91 49.76 58.90 66.54 66.68 66.87 67.23 66.45 65.79 64.90 64.44 65.49 65.78 66.63 66.99 66.57 65.45 67.64 68.65 68.99 68.81 68.73 68.29 67.92 66.52 64.97 63.31 61.74 59.89 59.55 58.94 59.57 56.98 53.97 54.58 52.25 52.81 50.76 49.76 48.86 48.50 48.86 50.50
47.25 45.22 52.50 66.07 67.26 66.99 67.06 67.03 66.61 65.40 65.66 66.45 66.12 66.70 66.99 67.15 65.94 67.04 68.49 69.09 68.90 68.60 68.17 67.18 65.30 63.38 63.26 61.91 60.26 57.36 56.15 55.91 56.75 56.76 51.62 49.88 50.69 49.11 47.70 47.76 47.17 46.42 46.89
48.21 47.08 47.28 62.89 67.46 67.39 67.17 67.45 67.03 66.54 66.07 66.09 66.20 66.52 67.08 67.17 66.25 67.18 68.56 69.22 68.80 67.10 66.54 65.83 64.65 62.97 62.47 61.26 58.92 57.83 56.92 56.69 54.50 53.22 50.93 49.89 49.18 49.75 46.30 45.55 45.66 45.35 45.70
MSLP
1005.15 1004.92 1005.74 1006.69 1007.15 1007.00 1007.23 1007.60 1007.96 1008.38 1008.81 1009.05 1009.37 1009.74 1010.22 1010.70 1011.20 1011.61 1011.93 1012.17 1012.44 1012.65 1012.81 1013.00 1013.22 1013.40 1013.61 1013.76 1013.89 1013.99 1014.04 1014.03 1014.21 1014.40 1014.48 1014.63 1014.73 1014.83 1014.86 1014.84 1014.91 1015.02 1015.02
1004.02 1004.76 1005.30 1006.22 1006.90 1006.97 1007.36 1007.64 1008.08 1008.51 1009.03 1009.39 1009.64 1010.02 1010.43 1010.91 1011.36 1011.78 1012.07 1012.34 1012.62 1012.75 1012.92 1013.14 1013.36 1013.58 1013.80 1013.95 1014.05 1014.16 1014.28 1014.38 1014.45 1014.49 1014.61 1014.75 1014.87 1014.95 1014.92 1014.96 1015.03 1015.08 1015.02
1004.07 1004.39 1005.06 1005.98 1006.47 1007.10 1007.43 1007.74 1008.16 1008.62 1009.00 1009.54 1009.89 1010.28 1010.69 1010.99 1011.42 1011.84 1012.15 1012.47 1012.67 1012.89 1013.09 1013.34 1013.55 1013.72 1013.99 1014.13 1014.28 1014.42 1014.54 1014.63 1014.65 1014.63 1014.70 1014.88 1014.96 1014.98 1015.05 1015.15 1015.13 1015.22 1015.14
1004.15 1004.43 1004.84 1005.75 1006.39 1007.13 1007.63 1007.94 1008.35 1008.82 1009.20 1009.70 1010.04 1010.43 1010.88 1011.21 1011.57 1011.95 1012.24 1012.55 1012.76 1013.02 1013.27 1013.43 1013.63 1013.87 1014.10 1014.30 1014.56 1014.69 1014.71 1014.77 1014.76 1014.78 1014.87 1014.91 1014.87 1014.96 1015.03 1015.16 1015.23 1015.30 1015.29
1004.84 1004.66 1004.87 1005.48 1006.24 1006.92 1007.56 1008.13 1008.51 1008.99 1009.45 1009.95 1010.35 1010.67 1011.09 1011.39 1011.68 1012.07 1012.28 1012.54 1012.85 1013.07 1013.34 1013.58 1013.77 1013.93 1014.12 1014.34 1014.62 1014.75 1014.81 1014.89 1014.82 1014.80 1014.85 1014.87 1014.90 1014.85 1014.95 1015.01 1015.15 1015.24 1015.23
1004.82 1005.10 1005.40 1005.76 1006.45 1007.26 1007.71 1008.24 1008.58 1009.10 1009.62 1010.07 1010.53 1010.87 1011.17 1011.46 1011.74 1012.10 1012.44 1012.65 1012.92 1013.09 1013.37 1013.66 1013.82 1013.92 1014.08 1014.34 1014.66 1014.68 1014.76 1014.83 1014.84 1014.80 1014.73 1014.64 1014.77 1014.82 1014.91 1014.92 1014.96 1015.03 1015.10
1004.85 1005.12 1005.46 1006.03 1006.58 1007.12 1007.81 1008.31 1008.76 1009.06 1009.60 1010.15 1010.56 1010.99 1011.30 1011.58 1011.88 1012.09 1012.47 1012.72 1012.98 1013.25 1013.43 1013.70 1013.93 1014.02 1014.21 1014.43 1014.67 1014.73 1014.70 1014.68 1014.75 1014.76 1014.62 1014.52 1014.65 1014.81 1014.85 1014.93 1014.97 1014.94 1014.91
1006.15 1006.36 1006.26 1006.52 1006.89 1007.33 1007.84 1008.43 1008.91 1009.33 1009.71 1010.22 1010.68 1011.10 1011.47 1011.77 1012.04 1012.30 1012.55 1012.81 1013.07 1013.30 1013.52 1013.72 1013.94 1014.13 1014.26 1014.45 1014.65 1014.72 1014.65 1014.66 1014.75 1014.82 1014.75 1014.66 1014.74 1014.86 1014.91 1015.01 1014.99 1014.87 1014.86
1006.83 1007.03 1006.96 1007.42 1007.47 1007.75 1008.22 1008.68 1009.15 1009.67 1010.16 1010.58 1010.96 1011.27 1011.60 1011.94 1012.19 1012.40 1012.70 1012.85 1013.08 1013.34 1013.51 1013.73 1013.92 1014.13 1014.42 1014.61 1014.72 1014.76 1014.65 1014.68 1014.84 1014.80 1014.71 1014.82 1014.81 1014.89 1015.04 1015.09 1015.20 1015.24 1015.30
1007.25 1007.76 1008.03 1008.15 1008.24 1008.00 1008.27 1008.82 1009.21 1009.72 1010.24 1010.78 1011.23 1011.54 1011.79 1011.97 1012.25 1012.54 1012.77 1012.94 1013.13 1013.32 1013.53 1013.74 1013.90 1014.09 1014.29 1014.56 1014.68 1014.72 1014.67 1014.84 1014.96 1014.89 1014.89 1014.88 1014.93 1015.00 1015.21 1015.37 1015.48 1015.52 1015.47
1007.64 1007.91 1008.29 1008.54 1008.94 1008.99 1008.47 1008.66 1009.30 1009.52 1010.03 1010.57 1011.20 1011.66 1012.01 1012.23 1012.38 1012.56 1012.84 1013.02 1013.22 1013.38 1013.60 1013.79 1013.98 1014.20 1014.29 1014.38 1014.56 1014.63 1014.51 1014.83 1014.85 1014.78 1014.87 1014.91 1015.05 1015.18 1015.34 1015.51 1015.65 1015.69 1015.64
1007.56 1007.79 1008.12 1008.47 1008.71 1009.05 1009.10 1009.19 1009.34 1009.56 1009.91 1010.40 1010.95 1011.43 1011.94 1012.27 1012.55 1012.73 1012.94 1013.10 1013.29 1013.49 1013.64 1013.79 1014.01 1014.21 1014.26 1014.47 1014.55 1014.49 1014.60 1014.77 1014.78 1014.78 1014.84 1014.88 1014.98 1015.16 1015.36 1015.58 1015.69 1015.74 1015.73
1006.94 1007.40 1007.72 1008.13 1008.48 1008.33 1008.97 1009.34 1009.49 1009.70 1010.02 1010.30 1010.78 1011.29 1011.82 1012.23 1012.56 1012.83 1013.13 1013.25 1013.44 1013.57 1013.82 1013.87 1014.04 1014.16 1014.22 1014.45 1014.46 1014.50 1014.58 1014.59 1014.54 1014.63 1014.75 1014.90 1015.04 1015.22 1015.36 1015.56 1015.71 1015.77 1015.74
1006.26 1006.09 1006.67 1007.42 1008.07 1008.89 1008.23 1008.71 1009.31 1009.56 1009.71 1010.29 1010.76 1011.18 1011.51 1012.00 1012.48 1012.77 1013.14 1013.29 1013.50 1013.66 1013.87 1013.90 1014.02 1014.05 1014.23 1014.38 1014.42 1014.32 1014.33 1014.33 1014.34 1014.44 1014.57 1014.83 1015.05 1015.18 1015.37 1015.50 1015.66 1015.65 1015.61
1006.35 1005.84 1005.95 1006.71 1007.44 1008.06 1008.47 1009.14 1009.16 1009.43 1009.50 1009.41 1010.00 1010.84 1011.37 1011.78 1012.22 1012.47 1012.77 1013.11 1013.37 1013.72 1013.81 1013.92 1013.93 1013.79 1014.18 1014.22 1014.17 1014.07 1014.00 1014.06 1014.32 1014.46 1014.65 1014.78 1015.04 1015.24 1015.38 1015.44 1015.43 1015.48 1015.53
1005.49 1005.55 1005.72 1006.14 1006.71 1007.31 1008.13 1008.49 1009.00 1009.44 1009.43 1009.63 1009.70 1009.86 1010.46 1011.05 1011.59 1012.08 1012.44 1012.86 1013.10 1013.52 1013.79 1014.00 1013.99 1013.97 1014.08 1014.10 1014.06 1013.70 1013.72 1014.09 1014.32 1014.61 1014.65 1014.76 1014.96 1015.13 1015.19 1015.29 1015.30 1015.42 1015.37
1004.81 1004.76 1005.18 1005.56 1005.79 1006.47 1007.35 1008.05 1008.79 1009.17 1009.63 1010.05 1010.08 1010.13 1010.46 1010.63 1010.90 1011.47 1012.15 1012.62 1012.79 1013.31 1013.78 1013.98 1014.01 1014.02 1014.14 1014.07 1013.91 1013.76 1013.80 1014.23 1014.39 1014.51 1014.70 1014.81 1014.91 1014.99 1015.17 1015.36 1015.30 1015.38 1015.23
1004.64 1004.61 1004.57 1004.82 1005.37 1005.86 1006.36 1007.00 1007.85 1008.80 1009.25 1009.79 1010.06 1010.47 1010.63 1010.87 1010.89 1011.29 1011.77 1012.21 1012.54 1013.04 1013.46 1013.96 1013.89 1014.13 1014.19 1014.18 1014.10 1014.02 1014.02 1014.05 1014.31 1014.59 1014.77 1015.08 1015.17 1015.25 1015.30 1015.38 1015.32 1015.23 1015.18
1004.25 1003.82 1004.12 1004.43 1004.74 1005.11 1005.71 1006.46 1007.07 1007.75 1008.73 1009.23 1009.71 1010.01 1010.35 1010.67 1010.84 1011.32 1011.67 1011.87 1012.21 1012.80 1013.21 1013.73 1013.90 1013.91 1014.29 1014.46 1014.47 1014.51 1014.55 1014.50 1014.67 1014.76 1015.06 1015.10 1015.22 1015.27 1015.41 1015.21 1015.08 1015.12 1015.08
1003.93 1003.69 1003.73 1003.79 1003.83 1004.50 1005.25 1006.18 1006.87 1007.45 1007.91 1008.40 1008.95 1009.30 1009.82 1010.33 1010.54 1010.90 1011.34 1011.80 1011.95 1012.58 1013.00 1013.43 1013.64 1013.78 1014.06 1014.44 1014.84 1015.25 1015.33 1015.12 1015.12 1015.27 1015.35 1015.24 1015.43 1015.54 1015.66 1015.53 1015.47 1015.42 1015.19
1003.91 1003.50 1003.42 1003.40 1003.60 1004.04 1004.75 1005.34 1006.14 1006.49 1007.11 1007.82 1008.27 1008.41 1009.26 1009.79 1010.10 1010.57 1010.95 1011.51 1011.92 1012.23 1012.58 1013.06 1013.52 1013.73 1014.15 1014.51 1015.05 1015.74 1016.03 1015.90 1015.72 1015.78 1015.82 1015.77 1015.94 1016.22 1016.10 1016.05 1015.92 1015.88 1015.81
1003.65 1003.33 1003.26 1003.12 1003.27 1003.42 1003.97 1004.33 1004.84 1005.42 1006.13 1006.63 1007.51 1008.11 1008.45 1008.98 1009.50 1010.00 1010.38 1010.87 1011.34 1011.86 1012.15 1012.66 1013.02 1013.68 1013.93 1014.35 1014.91 1015.39 1016.08 1016.52 1016.47 1016.71 1016.74 1016.50 1016.56 1016.58 1016.48 1016.54 1016.35 1016.50 1016.56
1003.70 1003.17 1003.07 1003.03 1002.72 1002.87 1003.27 1004.23 1004.91 1005.50 1006.17 1006.87 1007.03 1007.39 1007.51 1008.10 1008.83 1009.28 1009.89 1010.30 1010.70 1011.15 1011.63 1012.17 1012.54 1012.88 1013.64 1014.45 1014.34 1014.48 1015.64 1015.94 1016.63 1017.39 1017.62 1017.28 1017.24 1017.15 1017.06 1016.97 1016.88 1016.90 1017.03
1003.16 1002.58 1002.31 1002.46 1002.73 1002.75 1003.18 1003.67 1004.28 1004.30 1004.59 1005.12 1005.62 1006.38 1006.77 1007.44 1008.16 1008.76 1009.50 1009.83 1010.24 1010.66 1011.03 1011.50 1012.14 1012.60 1013.12 1013.75 1014.29 1014.44 1014.65 1014.98 1016.05 1017.40 1017.87 1017.92 1017.74 1017.99 1017.77 1017.47 1017.50 1017.50 1017.54
1002.85 1002.59 1002.25 1002.11 1002.08 1002.55 1002.92 1003.22 1003.53 1004.09 1004.14 1004.55 1005.22 1005.74 1006.40 1007.12 1007.58 1007.93 1008.59 1009.28 1009.73 1010.36 1010.71 1011.01 1011.82 1012.39 1012.85 1013.28 1013.59 1014.27 1014.83 1015.23 1015.57 1016.17 1017.27 1018.00 1018.20 1018.60 1018.27 1018.07 1017.81 1017.83 1017.86
1003.14 1002.46 1002.28 1002.14 1002.01 1002.20 1002.15 1002.53 1003.10 1003.17 1003.57 1004.23 1004.91 1005.31 1005.60 1006.19 1006.91 1007.51 1007.92 1008.70 1009.08 1010.00 1010.47 1010.78 1011.33 1012.00 1012.58 1012.86 1013.32 1013.68 1014.36 1014.97 1015.67 1016.14 1016.76 1017.59 1018.00 1018.42 1018.50 1018.33 1018.11 1018.25 1018.14
Wind_Speed
7 17 23 19 17 18 19 19 19 20 19 20 20 21 20 20 19 18 17 16 14 13 13 12 11 11 11 11 11 11 11 11 12 12 12 11 10 10 10 10 10 8 9
16 17 25 20 18 19 19 19 19 20 19 19 20 20 20 19 19 18 17 15 13 13 13 12 12 11 11 12 12 12 11 10 10 11 10 9 7 7 8 8 8 7 9
17 17 20 21 20 19 19 19 19 19 19 19 19 19 19 19 18 17 16 15 14 14 13 12 11 11 12 11 11 11 11 10 9 9 8 4 3 5 7 5 6 7 7
16 16 18 22 20 19 19 19 19 19 19 19 19 19 19 18 18 17 16 15 14 14 13 12 12 12 12 11 11 10 10 9 9 8 4 4 4 6 5 4 5 5 5
12 12 16 22 21 20 20 19 19 19 19 18 18 18 18 18 17 16 15 14 14 14 13 12 11 12 11 11 10 9 7 7 5 4 3 3 3 5 5 3 3 5 5
13 10 18 20 20 19 19 19 19 19 19 18 18 18 17 17 16 15 14 13 13 13 12 11 11 11 11 10 9 7 4 3 2 2 4 4 4 3 3 1 4 6 7
12 11 16 19 20 20 19 20 19 20 19 19 18 17 17 16 15 15 14 12 12 12 11 10 10 10 9 9 8 5 4 1 2 3 4 5 4 6 3 1 4 5 5
5 6 10 17 18 18 19 18 19 19 19 18 17 16 15 14 14 13 13 12 11 11 10 9 9 8 8 8 7 5 3 2 3 3 3 4 6 5 2 3 4 3 5
5 4 8 9 12 17 16 16 17 17 17 16 15 15 14 13 12 12 11 11 10 9 9 8 8 8 7 7 6 4 3 3 3 1 4 3 5 6 7 10 11 11 10
6 4 6 4 4 9 10 16 17 17 16 15 13 13 13 13 12 11 10 10 10 9 9 8 7 6 7 6 5 4 3 4 3 3 3 3 6 7 7 9 9 9 10
5 4 3 6 1 2 8 12 14 20 18 16 14 12 9 4 6 9 8 9 9 9 8 7 6 5 5 5 4 3 4 2 2 2 2 6 6 7 8 9 8 8 9
5 6 5 5 5 5 6 8 9 10 9 9 8 9 4 5 4 6 7 9 9 9 8 7 5 5 4 2 1 1 1 2 2 2 3 7 7 8 8 7 7 6 7
8 6 8 7 6 9 6 5 6 5 6 6 8 7 6 6 4 3 2 2 2 6 2 3 2 2 3 2 1 1 2 3 2 3 4 6 7 7 7 6 5 6 8
12 15 14 12 9 6 5 8 7 7 7 6 7 9 7 7 6 6 3 3 3 2 3 3 2 3 2 2 3 3 4 3 3 3 4 7 7 7 6 6 6 7 7
9 12 15 14 12 10 7 6 8 8 8 10 10 11 10 9 9 6 5 4 3 2 3 3 3 2 2 3 2 3 4 5 5 3 2 7 6 6 6 7 7 6 6
8 11 11 15 15 13 8 9 6 5 7 7 9 11 16 11 8 7 6 5 4 3 3 2 3 2 1 2 2 2 2 5 5 4 3 3 7 7 7 8 7 6 6
8 8 12 16 17 16 13 8 5 5 4 6 6 9 13 11 10 9 6 5 5 4 3 3 2 1 1 2 2 1 3 3 3 5 4 3 4 8 6 4 4 5 6
9 8 11 13 16 17 15 11 9 7 6 6 5 7 10 9 9 8 7 6 4 4 4 3 2 2 2 1 1 1 2 4 4 3 2 2 2 1 2 3 4 7 6
13 9 10 12 15 18 16 12 12 12 8 7 5 6 9 9 8 7 5 5 6 5 4 3 2 3 2 2 2 3 3 3 2 2 2 2 1 1 0 2 4 5 6
11 10 7 9 14 16 11 10 9 9 9 8 7 7 7 7 8 7 5 5 6 4 4 3 3 2 2 3 5 4 4 4 3 3 4 4 5 6 5 6 5 6 11
10 9 10 8 10 11 10 12 11 13 11 8 7 9 9 8 9 9 6 5 5 6 6 6 2 3 2 2 4 3 5 6 7 6 5 5 7 7 8 8 6 6 6
9 10 7 9 10 12 11 12 9 12 9 10 8 7 11 12 11 10 9 7 8 5 5 7 6 3 2 2 3 2 3 1 6 7 5 6 7 6 9 9 9 9 7
9 10 8 11 13 14 14 7 2 6 4 6 8 10 12 13 13 12 10 7 8 7 6 8 7 6 4 2 3 4 3 3 3 2 6 6 6 7 7 7 9 9 8
10 9 9 11 12 13 12 12 13 13 12 11 10 9 9 11 12 11 9 9 8 6 7 8 6 3 4 5 2 2 4 3 3 4 2 4 5 7 6 6 7 8 8
6 8 8 9 12 12 12 14 13 13 12 7 9 13 11 11 15 15 13 11 9 6 7 10 7 5 3 4 3 3 2 3 2 2 4 3 3 3 5 5 6 6 7
6 6 5 6 11 12 15 16 16 17 14 7 9 10 10 9 9 10 11 10 8 7 9 8 6 6 4 4 3 3 3 3 2 2 3 2 3 3 3 4 5 6 5
Wind_Direction
182 146 151 152 149 136 130 127 123 122 124 128 130 131 133 137 138 140 139 137 137 135 130 123 117 114 112 114 117 117 124 132 131 128 132 133 140 146 143 145 143 148 147
143 151 151 152 149 138 136 134 132 130 130 132 132 133 134 136 138 140 140 138 138 136 133 130 127 123 121 120 124 129 135 133 132 135 139 141 141 158 168 156 158 167 160
150 151 149 151 146 144 142 140 138 137 133 134 134 134 137 138 140 143 142 141 140 138 136 133 130 125 122 128 131 131 131 128 131 140 146 151 158 143 172 174 174 183 176
151 152 147 149 146 146 144 142 141 139 137 138 139 139 141 142 145 146 145 143 141 141 139 137 133 127 127 132 130 132 136 139 144 149 152 175 185 172 171 185 202 210 206
147 152 152 150 149 149 147 146 142 141 140 141 142 142 144 146 148 149 147 146 146 145 143 137 131 129 132 136 132 137 143 146 157 152 216 227 212 181 175 192 253 253 241
151 153 154 148 147 148 147 147 144 143 143 145 145 147 150 151 150 150 149 149 153 150 146 139 138 134 136 135 134 140 144 135 95 10 309 258 212 200 171 220 277 277 257
149 154 152 149 150 150 151 149 148 147 147 149 151 152 154 153 152 149 153 155 155 153 147 143 143 137 134 132 132 138 128 66 35 9 15 72 124 164 147 299 307 292 286
112 138 149 153 151 151 151 152 151 150 150 152 153 155 157 155 153 153 156 156 156 153 151 151 147 141 133 124 127 128 118 68 25 13 64 91 107 115 85 23 355 10 359
87 126 148 161 156 149 150 153 151 151 152 152 153 157 157 156 155 155 158 156 154 151 154 159 156 148 130 122 124 130 112 64 62 18 125 115 114 87 68 58 59 61 63
117 91 165 156 164 151 150 155 153 154 153 153 158 160 159 159 158 160 158 160 158 161 166 168 171 152 135 127 137 139 120 101 124 118 123 129 107 93 81 74 70 72 74
147 127 164 177 200 204 155 158 162 159 160 158 164 164 155 149 158 167 172 173 170 174 177 180 178 155 140 137 156 173 142 162 168 151 161 142 112 98 85 79 79 78 79
149 173 161 169 176 183 173 174 161 167 161 163 162 164 150 153 160 168 184 185 183 187 186 186 178 169 138 137 174 148 168 199 200 186 171 149 131 106 95 96 93 98 101
170 176 189 184 193 173 175 179 176 169 168 163 166 158 160 169 182 168 175 183 180 196 198 192 175 167 165 166 209 205 226 212 198 167 160 146 125 115 113 119 122 117 113
190 192 187 187 180 229 185 174 183 177 169 170 173 173 175 188 194 192 190 184 183 190 194 203 192 191 173 195 223 220 234 193 157 152 153 143 136 135 147 146 139 138 128
217 207 192 179 181 187 186 200 184 192 181 174 171 185 192 194 196 186 188 182 185 178 203 208 211 201 159 212 233 255 237 175 149 143 137 144 154 169 169 162 161 157 150
225 214 197 186 183 177 193 181 185 205 185 187 182 185 189 192 188 186 183 189 188 184 210 209 209 197 190 246 279 262 176 145 139 141 154 159 182 190 188 186 180 180 190
247 214 187 190 182 181 186 175 178 166 189 194 205 195 199 190 185 181 186 187 195 180 196 206 214 139 275 305 333 38 128 118 141 157 161 187 203 209 200 209 207 218 228
250 194 198 192 191 191 188 178 165 171 181 195 206 210 206 204 190 185 183 190 180 171 182 204 176 167 236 219 145 49 108 147 158 182 172 200 192 226 344 335 276 250 250
258 235 193 195 193 194 192 183 181 166 179 191 190 198 200 201 190 190 192 187 165 177 189 182 174 163 166 125 133 66 52 83 94 118 169 126 142 86 314 335 341 327 299
270 271 244 200 194 189 181 180 181 177 182 180 188 189 181 196 189 188 193 179 170 173 178 170 168 132 142 126 96 78 45 38 45 57 63 67 70 61 53 55 50 44 61
279 279 257 182 192 170 172 177 184 193 187 187 190 174 183 194 198 193 196 176 172 182 189 184 143 138 106 134 116 90 51 47 53 48 51 67 66 56 57 55 63 59 54
232 255 252 216 185 184 184 192 194 190 193 187 174 181 190 195 201 199 195 185 177 180 164 169 162 139 116 143 149 109 151 95 50 37 28 54 59 67 68 61 56 45 32
246 240 226 217 196 194 188 182 115 147 119 174 178 198 202 196 205 202 197 184 180 177 176 175 166 152 139 148 205 144 140 184 131 37 31 49 55 70 62 55 44 39 32
243 241 226 202 206 200 181 177 184 190 184 200 200 202 195 191 195 195 194 186 184 185 170 174 172 153 144 160 124 72 66 132 154 160 63 44 69 65 61 56 52 42 31
308 253 256 218 195 192 188 193 188 196 204 186 194 187 184 199 205 195 189 184 181 181 174 162 158 165 180 148 140 147 98 70 79 146 157 152 84 64 58 61 63 48 29
320 324 301 248 218 200 191 194 197 201 197 185 188 199 193 194 189 191 183 183 169 163 167 162 148 149 148 122 123 112 134 146 154 147 119 149 194 170 90 64 60 38 19